{"data":{"norad_id":62103,"intl_designator":"2024-220R","name":"STARLINK-33554","alt_names":[],"object_type":"PAYLOAD","status":"ACTIVE","operator":null,"country":"US","launch_date":"2024-11-25","launch_site_code":"AFETR","launch_vehicle":null,"mission":null,"orbit_class":"UNKNOWN","rcs_meters":null,"size_class":null,"mass_kg":null,"dimensions":null,"purposes":["comms"],"wikipedia_slug":null,"has_3d_model":false,"image_url":null,"decayed_at":null,"tle_current":{"epoch":"2026-09-21T04:30:59.174496Z","epoch_age_seconds":122112,"freshness":"FRESH","line1":"1 62103U 24220R   26264.18818489  .00011680  00000+0  43302-3 0  9999","line2":"2 62103  42.9990 181.1704 0000702   6.4880 353.5980 15.27599493102857","mean_motion":15.27599493,"eccentricity":7.02e-5,"inclination_deg":42.999,"raan_deg":181.1704,"arg_perigee_deg":6.488,"mean_anomaly_deg":353.598,"bstar":0.00043302,"rev_number":10285,"period_min":94.265545818691,"perigee_km":482.50907643929,"apogee_km":483.47237877225,"semimajor_km":6861.1277276058,"source":"CELESTRAK","updated_at":"2026-09-22T09:00:49.499209Z"}}}